Showing default

IRIDIUM 181, 56726

Orbit data source: Space-Track

IRIDIUM 181, 56726 is a payload satellite owned by Iridium (US) in LEO that was launched on Sat, 20 May 2023 UTC via an FALCON 9 launch vehicle from the Air Force Western Test Range (AFWTR). Payload-class satellites include a variety of spacecraft equipped with specific instruments for various scientific and technological missions. These include communications satellites like Starlink; space stations such as the ISS; scientific satellites like the Hubble; Earth observation satellites from companies like Planet Labs, Umbra, and HawkEye 360; GPS; miniature CubeSats for education and research; and military/defense satellites.

Loading next visibility...
Identifier
56726, 2023-068S
Orbit
LEO
Country
Flag of USUS
Related business
Manufacturer
NGIS SSG Gilbert
Mission
Operational Commercial Communications
Bus & Motor
ELITEBUS, Unknown motor
Mass
860 kg wet, 700 kg dry
Launch date (UTC)
2023-05-20 (3 years ago)
Launch vehicle
FALCON 9
Launch site
Air Force Western Test Range (AFWTR)
Object type
Payload
Rocket body
Debris
Shape & HBR
Trap Box + 2 Pan, 4.8 m
Radar Cross Section
10.154 m², Large (>1 m²)

Expand to show TLE details & history
Last TLE update: 2 days ago

TLE from 2 days ago
0 IRIDIUM 181
1 56726U 23068S   26171.43426507  .00000233  00000-0  63245-4 0  9995
2 56726  86.4498  55.4334 0002392  88.7656 271.3819 14.43308086162903
Epoch: 2026-06-20T10:25Z
TLE epoch observation values (Epoch: 2026-06-20T10:25:20.502Z)
Latitude
0.00001°
Longitude
-9.55097°
Altitude
750.613 km
Speed
7.479 km/s
True Right ascension
03h 41m 44s
True Declination
0° 00' 00"
Sunlit
Object was in daylight at epoch
Visualization orbit readout
Latitude
Unknown
Longitude
Unknown
Altitude
Unknown
Speed
Unknown
Apparent Right ascension
Unknown
Apparent Declination
Unknown
Sunlit
N/A
Visualization observer readout
Local Sidereal Time
21:31:35
Azimuth
Unknown
Elevation
Unknown
Doppler factor
Unknown
Orbital elements
Apogee altitude
746.244 km
Perigee altitude
742.836 km
Semi-major axis
7,122.677 km
Eccentricity
0.00024
Inclination
86.4498°
RAAN
55.4334°
Arg. of periapsis
88.7656°
True anomaly
271.3545°
Mean anomaly
271.3819°
Eccentric anomaly
271.3682°
Mean motion
3.61059 °/min
Orbital period
99.71 mins
BSTAR
0.000063245
Loading maneuver chart data...
Computing Atmospheric mass density...
Loading historical data...
Loading historical data...
Loading historical data...
Loading historical data...
Loading historical data...
Loading historical data...
Loading historical data...

Documentation

Showing up to 5 results
|